User: anonymous   Login
Location: Newark
(36.1358°N, 115.1208°W)
Time: 04:25:28
(UTC+00:00)
Language:

DUCHIFAT 1 - Orbit

View from above orbital plane
View from above orbital plane
View from above satellite
View from above satellite

Ground track
Ground track

The orbit data is extracted from the following two-line orbital elements,

1 40021U 14033M   20092.76774101  .00000439  00000-0  50361-4 0  9999
2 40021  97.9390  23.5550 0012795 173.9335 186.2040 14.90850083314468
Epoch (UTC): 01 April 2020 18:25:32
Eccentricity: 0.0012795
inclination: 97.9390°
perigee height: 586 km
apogee height: 604 km
right ascension of ascending node: 23.5550°
argument of perigee: 173.9335°
revolutions per day: 14.90850083
mean anomaly at epoch: 186.2040°
orbit number at epoch: 31446

The dashed part of the orbit path shows where the satellite is in the earth's shadow,  

DLR